GW6028 Weather Reports


time (UTC)temp
C
wind
direction
speed
KPH
gust
KPH
rain 1hr
cm
rain 24hr
cm
rain mn
cm
humidity
%
barometer
mb
20260508005505 12 292 3.2 6.4 0.00 0.03 0.03 42 1006.9
20260508005004 12 300 3.2 8.0 0.00 0.03 0.03 42 1006.9
20260508004515 12 271 3.2 8.0 0.00 0.03 0.03 43 1006.8
20260508004003 12 293 4.8 8.0 0.00 0.03 0.03 43 1006.8
20260508003503 12 283 4.8 9.7 0.00 0.03 0.03 42 1006.7
20260508003034 12 282 4.8 9.7 0.00 0.03 0.03 40 1006.6
20260508002502 13 303 4.8 9.7 0.00 0.03 0.03 39 1006.6
20260508002010 13 282 6.4 9.7 0.00 0.03 0.03 38 1006.5
20260508001513 13 295 3.2 9.7 0.00 0.03 0.03 38 1006.5
20260508001006 13 288 4.8 11.3 0.00 0.03 0.03 38 1006.4
20260508000508 13 249 6.4 12.9 0.00 0.03 0.03 37 1006.4
20260508000002 13 304 6.4 12.9 0.00 0.03 0.03 38 1006.4
20260507235004 13 288 6.4 12.9 0.00 0.03 0.03 39 1006.2
20260507234007 14 287 4.8 11.3 0.00 0.05 0.03 38 1006.3
20260507233503 15 254 4.8 11.3 0.00 0.10 0.03 36 1006.2
20260507233006 15 219 4.8 11.3 0.00 0.18 0.03 36 1006.1
20260507232504 15 281 4.8 12.9 0.00 0.20 0.03 35 1006.0
20260507232005 15 317 4.8 12.9 0.00 0.20 0.03 35 1005.9
20260507231510 15 326 3.2 11.3 0.00 0.23 0.03 36 1005.9
20260507231009 15 297 6.4 11.3 0.00 0.25 0.03 35 1005.8
20260507230510 15 273 3.2 11.3 0.00 0.28 0.03 33 1005.9
20260507230016 15 356 6.4 19.3 0.00 0.30 0.03 33 1005.9
20260507225509 16 328 9.7 19.3 0.00 0.33 0.03 34 1005.8
20260507225008 16 299 6.4 19.3 0.00 0.36 0.03 33 1005.7
20260507224505 16 273 11.3 19.3 0.00 0.38 0.03 34 1005.7
20260507224003 16 305 4.8 19.3 0.00 0.41 0.03 32 1005.7
20260507223503 16 342 8.0 16.1 0.00 0.41 0.03 32 1005.5
20260507223006 16 300 6.4 22.5 0.00 0.41 0.03 35 1005.4
20260507222506 16 257 12.9 22.5 0.00 0.41 0.03 33 1005.3
20260507222007 16 304 9.7 19.3 0.00 0.43 0.03 33 1005.4
20260507221508 16 263 9.7 22.5 0.00 0.43 0.03 31 1005.3
20260507221003 16 292 11.3 24.1 0.00 0.46 0.03 32 1005.2
20260507220506 16 308 12.9 24.1 0.00 0.46 0.03 32 1005.2
20260507220014 16 271 6.4 22.5 0.00 0.46 0.03 33 1005.2
20260507215507 16 297 11.3 24.1 0.00 0.46 0.03 32 1005.1
20260507215004 16 319 12.9 24.1 0.00 0.46 0.03 32 1005.1
20260507214515 17 63 9.7 20.9 0.00 0.46 0.03 31 1005.0
20260507214009 17 39 8.0 16.1 0.00 0.48 0.03 32 1005.0
20260507213507 17 283 8.0 22.5 0.00 0.48 0.03 31 1004.9
20260507213003 17 333 8.0 22.5 0.00 0.48 0.03 33 1005.0
20260507212503 17 316 8.0 19.3 0.00 0.48 0.03 31 1005.0
20260507212003 17 6 4.8 19.3 0.00 0.48 0.03 30 1005.0
20260507211508 17 288 9.7 29.0 0.00 0.51 0.03 31 1005.0
20260507211004 17 349 16.1 29.0 0.00 0.51 0.03 31 1005.0
20260507210504 17 276 12.9 24.1 0.00 0.53 0.03 33 1005.0
20260507210010 17 278 11.3 25.7 0.00 0.53 0.03 32 1005.0
20260507205504 17 274 14.5 25.7 0.00 0.56 0.03 32 1005.0
20260507205004 17 300 8.0 22.5 0.00 0.58 0.03 31 1004.9
20260507204516 17 297 9.7 22.5 0.00 0.58 0.03 31 1004.9
20260507204005 17 267 6.4 27.4 0.00 0.61 0.03 33 1005.1
20260507203505 17 269 9.7 27.4 0.00 0.64 0.03 33 1005.1
20260507203018 17 238 6.4 22.5 0.00 0.66 0.03 32 1005.1
20260507202508 17 326 9.7 22.5 0.00 0.69 0.03 31 1005.1
20260507202010 17 18 8.0 19.3 0.00 0.71 0.03 30 1005.0
20260507201506 17 266 9.7 19.3 0.00 0.74 0.03 32 1005.0
20260507201004 17 54 8.0 17.7 0.00 0.74 0.03 32 1005.0
20260507200503 17 306 9.7 17.7 0.00 0.74 0.03 31 1005.1
20260507200010 17 288 4.8 22.5 0.00 0.74 0.03 32 1005.1
20260507195504 17 288 4.8 22.5 0.00 0.74 0.03 33 1005.2
20260507195005 17 292 11.3 20.9 0.00 0.74 0.03 32 1005.2
20260507194514 17 313 12.9 22.5 0.00 0.76 0.03 33 1005.1
20260507194004 17 319 9.7 22.5 0.00 0.76 0.03 32 1005.1
20260507193504 17 271 11.3 24.1 0.00 0.79 0.03 32 1005.2
20260507193020 17 258 8.0 24.1 0.00 0.79 0.03 33 1005.3
20260507192509 17 335 11.3 25.7 0.00 0.79 0.03 34 1005.3
20260507192007 17 312 8.0 25.7 0.00 0.79 0.03 33 1005.3
20260507191522 17 7 11.3 22.5 0.00 0.81 0.03 32 1005.4
20260507191007 17 281 11.3 22.5 0.00 0.81 0.03 33 1005.5
20260507190510 17 28 8.0 25.7 0.00 0.81 0.03 33 1005.6
20260507190007 17 283 8.0 25.7 0.00 0.81 0.03 32 1005.5
20260507185503 17 288 14.5 25.7 0.00 0.81 0.03 32 1005.6
20260507185003 17 290 14.5 22.5 0.00 0.81 0.03 32 1005.5
20260507184513 17 212 12.9 19.3 0.00 0.81 0.03 32 1005.5
20260507184005 17 8 11.3 20.9 0.00 0.81 0.03 32 1005.6
20260507183506 17 322 11.3 27.4 0.00 0.81 0.03 33 1005.6
20260507183016 17 269 12.9 27.4 0.00 0.81 0.03 34 1005.7
20260507182506 17 327 6.4 22.5 0.00 0.81 0.03 33 1005.7
20260507182008 17 345 11.3 20.9 0.00 0.81 0.03 31 1005.6
20260507181518 17 251 9.7 20.9 0.00 0.81 0.03 30 1005.7
20260507181007 17 295 14.5 20.9 0.00 0.81 0.03 33 1005.7
20260507180508 17 281 14.5 20.9 0.00 0.81 0.03 35 1005.8
20260507180020 17 322 8.0 19.3 0.00 0.81 0.03 35 1005.7
20260507175511 17 78 9.7 20.9 0.00 0.81 0.03 34 1005.6
20260507175009 17 296 9.7 25.7 0.00 0.81 0.03 35 1005.7
20260507174510 17 288 11.3 30.6 0.00 0.81 0.03 35 1005.6
20260507174003 17 350 9.7 30.6 0.00 0.81 0.03 35 1005.6
20260507173504 17 260 16.1 29.0 0.00 0.81 0.03 36 1005.7
20260507173012 17 278 6.4 27.4 0.00 0.81 0.03 38 1005.6
20260507172503 16 269 12.9 27.4 0.00 0.81 0.03 37 1005.7
20260507172006 17 280 14.5 25.7 0.00 0.81 0.03 40 1005.7
20260507171514 16 311 6.4 25.7 0.00 0.81 0.03 41 1005.8
20260507171006 16 306 11.3 20.9 0.00 0.81 0.03 43 1005.8
20260507170507 17 232 6.4 17.7 0.00 0.81 0.03 45 1005.9
20260507170022 16 303 9.7 17.7 0.00 0.81 0.03 48 1006.1
20260507165506 16 235 11.3 24.1 0.00 0.81 0.03 49 1006.1
20260507165007 15 328 12.9 24.1 0.00 0.81 0.03 51 1006.2
20260507164522 16 278 11.3 24.1 0.00 0.81 0.03 50 1006.2
20260507164010 16 218 8.0 19.3 0.00 0.81 0.03 48 1006.2
20260507163508 16 279 9.7 20.9 0.00 0.81 0.03 49 1006.3
20260507163010 16 313 8.0 24.1 0.00 0.81 0.03 51 1006.4
20260507162503 15 323 9.7 25.7 0.00 0.81 0.03 53 1006.4
20260507162004 15 215 11.3 25.7 0.00 0.81 0.03 53 1006.5
20260507161514 15 271 11.3 22.5 0.00 0.81 0.03 51 1006.5
20260507161004 16 281 8.0 17.7 0.00 0.81 0.03 50 1006.5
20260507160506 16 275 4.8 22.5 0.00 0.81 0.03 50 1006.5
20260507160019 15 309 8.0 22.5 0.00 0.81 0.03 53 1006.5
20260507155512 15 311 4.8 19.3 0.00 0.81 0.03 51 1006.6
20260507155008 15 314 9.7 17.7 0.00 0.81 0.03 52 1006.5
20260507154522 15 335 4.8 14.5 0.00 0.81 0.03 50 1006.6
20260507154010 15 354 6.4 20.9 0.00 0.81 0.03 50 1006.7
20260507153505 15 309 8.0 20.9 0.00 0.81 0.03 48 1006.7
20260507153006 15 310 4.8 20.9 0.00 0.81 0.03 50 1006.7
20260507152504 15 285 6.4 20.9 0.00 0.81 0.03 50 1006.8
20260507152004 15 9 8.0 20.9 0.00 0.81 0.03 49 1006.8
20260507151512 15 297 12.9 20.9 0.00 0.81 0.03 51 1007.0
20260507151004 15 293 8.0 14.5 0.00 0.81 0.03 52 1007.1
20260507150504 15 146 6.4 14.5 0.00 0.81 0.03 51 1007.2
20260507150018 15 298 8.0 14.5 0.00 0.81 0.03 52 1007.3
20260507145504 15 285 6.4 14.5 0.00 0.81 0.03 52 1007.3
20260507145006 15 304 4.8 16.1 0.00 0.81 0.03 51 1007.3
20260507144518 15 255 6.4 19.3 0.00 0.81 0.03 52 1007.3
20260507144007 15 298 9.7 19.3 0.00 0.81 0.03 52 1007.3
20260507143507 15 259 6.4 14.5 0.00 0.81 0.03 52 1007.3
20260507143026 15 272 4.8 12.9 0.00 0.81 0.03 54 1007.3
20260507142502 15 60 6.4 16.1 0.00 0.81 0.03 53 1007.2
20260507142003 14 288 6.4 16.1 0.00 0.81 0.03 55 1007.3
20260507141506 14 267 1.6 8.0 0.00 0.81 0.03 54 1007.2
20260507141006 14 268 3.2 9.7 0.00 0.81 0.03 55 1007.2
20260507140504 14 1 3.2 9.7 0.00 0.81 0.03 56 1007.3
20260507140023 14 316 1.6 8.0 0.00 0.81 0.03 57 1007.2
20260507135506 13 314 3.2 12.9 0.00 0.81 0.03 57 1007.2
20260507135005 13 10 6.4 12.9 0.00 0.81 0.03 59 1007.2
20260507134514 13 273 4.8 11.3 0.00 0.81 0.03 59 1007.3
20260507134004 13 340 6.4 11.3 0.00 0.81 0.03 59 1007.4
20260507133510 13 324 3.2 11.3 0.00 0.81 0.03 61 1007.5
20260507133021 13 309 4.8 11.3 0.00 0.81 0.03 62 1007.6
20260507132508 13 280 4.8 11.3 0.00 0.81 0.03 61 1007.6
20260507132008 13 309 3.2 9.7 0.00 0.81 0.03 63 1007.7
20260507131532 12 359 3.2 9.7 0.00 0.81 0.03 63 1007.7
20260507131004 12 271 3.2 11.3 0.00 0.81 0.03 64 1007.8
20260507130505 12 340 4.8 16.1 0.00 0.81 0.03 65 1007.8
20260507130008 12 310 6.4 16.1 0.00 0.81 0.03 66 1007.8
20260507125504 12 351 4.8 12.9 0.00 0.81 0.03 67 1007.8
20260507125006 12 328 3.2 12.9 0.00 0.81 0.03 68 1007.8
20260507124515 11 319 6.4 12.9 0.00 0.81 0.03 69 1007.8
20260507124009 11 262 3.2 12.9 0.00 0.81 0.03 69 1007.9
20260507123506 11 285 4.8 12.9 0.00 0.81 0.03 69 1007.8
20260507123022 11 269 4.8 12.9 0.00 0.81 0.03 70 1007.8
20260507122507 11 288 6.4 11.3 0.00 0.81 0.03 71 1007.9
20260507122010 11 262 3.2 11.3 0.00 0.81 0.03 74 1008.0
20260507121522 10 276 4.8 11.3 0.00 0.81 0.03 74 1008.0
20260507121008 10 283 4.8 11.3 0.00 0.81 0.03 74 1008.0
20260507120508 10 298 6.4 16.1 0.00 0.81 0.03 76 1007.9
20260507120026 10 352 4.8 16.1 0.00 0.81 0.03 76 1007.8
20260507115506 10 321 6.4 17.7 0.00 0.81 0.03 77 1007.9
20260507115008 10 354 3.2 17.7 0.00 0.81 0.03 78 1007.9
20260507114511 9 256 6.4 14.5 0.00 0.81 0.03 78 1007.8
20260507114005 9 312 6.4 14.5 0.00 0.81 0.03 80 1007.7
20260507113506 9 318 4.8 16.1 0.00 0.81 0.03 80 1007.5
20260507113012 9 290 6.4 16.1 0.00 0.81 0.03 80 1007.4
20260507112504 8 359 8.0 14.5 0.00 0.81 0.03 81 1007.2
20260507112006 8 312 3.2 12.9 0.00 0.81 0.03 81 1007.4
20260507111520 8 305 4.8 11.3 0.00 0.81 0.03 82 1007.7
20260507111007 8 288 3.2 12.9 0.00 0.81 0.03 82 1007.9
20260507110506 8 281 4.8 12.9 0.00 0.81 0.03 82 1007.8
20260507110026 8 34 3.2 11.3 0.00 0.81 0.03 83 1007.8
20260507105508 8 293 3.2 11.3 0.00 0.81 0.03 83 1007.4
20260507105006 8 288 4.8 11.3 0.00 0.81 0.03 83 1007.3
20260507104528 8 298 4.8 11.3 0.00 0.81 0.03 83 1007.2
20260507104007 8 314 4.8 9.7 0.00 0.81 0.03 83 1007.1
20260507103503 8 240 3.2 12.9 0.00 0.81 0.03 83 1007.2
20260507103015 8 273 4.8 12.9 0.00 0.81 0.03 83 1007.0
20260507102506 8 295 4.8 11.3 0.00 0.81 0.03 83 1007.3
20260507102008 8 256 6.4 11.3 0.00 0.81 0.03 83 1007.3
20260507101535 8 57 4.8 11.3 0.00 0.81 0.03 83 1007.2
20260507101005 8 353 6.4 11.3 0.00 0.81 0.03 83 1007.1
20260507100507 8 316 4.8 12.9 0.00 0.81 0.03 83 1007.2
20260507100031 8 278 4.8 12.9 0.00 0.81 0.03 83 1007.6
20260507095508 8 274 6.4 12.9 0.00 0.81 0.03 83 1007.4
20260507095012 8 247 6.4 12.9 0.00 0.81 0.03 83 1007.1
20260507094525 8 313 6.4 11.3 0.00 0.81 0.03 83 1007.3
20260507094010 8 346 4.8 11.3 0.00 0.81 0.03 84 1007.3
20260507093508 8 252 3.2 14.5 0.00 0.81 0.03 83 1007.2
20260507093032 8 266 6.4 14.5 0.00 0.81 0.03 83 1007.3
20260507092514 8 252 6.4 14.5 0.00 0.81 0.03 83 1007.3
20260507092004 8 357 6.4 14.5 0.00 0.81 0.03 83 1007.3
20260507091533 8 294 8.0 12.9 0.00 0.81 0.03 83 1007.4
20260507091007 8 322 4.8 14.5 0.00 0.81 0.03 83 1007.2
20260507090507 9 299 6.4 14.5 0.00 0.81 0.03 84 1007.1
20260507090018 9 296 3.2 11.3 0.03 0.81 0.03 84 1007.0
20260507085506 9 294 6.4 12.9 0.03 0.81 0.03 84 1006.7
20260507085008 9 307 4.8 12.9 0.03 0.81 0.03 84 1007.0
20260507084527 9 234 4.8 12.9 0.03 0.81 0.03 84 1007.0
20260507084012 9 31 4.8 12.9 0.03 0.81 0.03 83 1006.8
20260507083026 9 278 4.8 14.5 0.03 0.81 0.03 83 1006.8
20260507082508 9 283 6.4 14.5 0.03 0.81 0.03 83 1006.6
20260507081538 10 290 6.4 19.3 0.03 0.81 0.03 82 1006.8
20260507081007 10 273 9.7 19.3 0.03 0.81 0.03 82 1006.8
20260507080017 10 317 6.4 20.9 0.00 0.79 0.00 81 1006.5
20260507075508 10 288 9.7 20.9 0.00 0.79 0.00 81 1006.8
20260507075012 10 89 8.0 20.9 0.00 0.79 0.00 81 1006.8
20260507074521 10 321 4.8 16.1 0.00 0.79 0.00 81 1006.5
20260507074005 10 338 6.4 14.5 0.00 0.79 0.00 82 1006.6
20260507073023 10 326 8.0 20.9 0.00 0.79 0.00 82 1006.2
20260507072511 10 276 11.3 20.9 0.00 0.79 0.00 82 1006.2
20260507072009 10 270 6.4 22.5 0.00 0.79 0.00 83 1006.2
20260507071526 10 304 8.0 22.5 0.00 0.79 0.00 83 1006.3
20260507071008 10 261 11.3 20.9 0.00 0.79 0.00 83 1006.5
20260507070509 10 281 9.7 20.9 0.00 0.79 0.00 83 1006.1
20260507070026 10 284 9.7 19.3 0.00 0.79 0.00 84 1006.1
20260507065513 10 291 9.7 16.1 0.00 0.79 0.00 85 1006.2
20260507065004 11 248 8.0 19.3 0.00 0.79 0.00 85 1006.1
20260507064519 11 278 9.7 19.3 0.00 0.79 0.00 85 1006.1
20260507064008 11 273 9.7 17.7 0.00 0.79 0.00 85 1005.8
20260507063507 11 293 6.4 19.3 0.00 0.79 0.00 85 1005.9
20260507063022 11 297 6.4 19.3 0.00 0.79 0.00 85 1005.8
20260507062512 11 281 9.7 16.1 0.00 0.79 0.00 85 1006.0
20260507061516 11 273 8.0 16.1 0.00 0.79 0.00 85 1005.9
20260507060007 11 302 9.7 17.7 0.00 0.79 0.00 85 1006.2
20260507054514 11 276 8.0 14.5 0.00 0.79 0.00 84 1006.1
20260507053018 11 319 11.3 20.9 0.00 0.79 0.00 82 1006.5
20260507052509 11 276 11.3 16.1 0.00 0.79 0.00 83 1006.4
20260507051505 11 316 9.7 22.5 0.00 0.79 0.00 83 1006.3
20260507051002 12 305 9.7 19.3 0.00 0.79 0.00 83 1006.4
20260507050502 12 310 9.7 22.5 0.00 0.79 0.00 83 1006.5
20260507050011 12 285 11.3 22.5 0.00 0.79 0.00 83 1006.4
20260507044526 12 311 8.0 17.7 0.00 0.79 0.00 85 1005.9
20260507041523 13 297 11.3 17.7 0.00 0.79 0.00 87 1006.2
20260507040010 13 293 12.9 25.7 0.00 0.79 0.00 87 1005.7
20260507035503 14 290 6.4 19.3 0.00 0.79 0.79 89 1005.7
20260507035004 14 287 11.3 19.3 0.00 0.79 0.79 89 1005.7
20260507034509 14 287 8.0 22.5 0.00 0.79 0.79 89 1005.6
20260507033015 15 264 4.8 14.5 0.00 0.79 0.79 91 1005.3
20260507031520 15 217 4.8 12.9 0.00 0.79 0.79 91 1005.0
20260507030510 15 196 8.0 17.7 0.00 0.79 0.79 90 1005.0
20260507025007 15 210 8.0 19.3 0.00 0.79 0.79 90 1005.1
20260507024506 15 229 6.4 14.5 0.00 0.79 0.79 90 1005.1
20260507024003 15 150 8.0 14.5 0.00 0.79 0.79 90 1005.1
20260507022004 15 205 8.0 17.7 0.00 0.79 0.79 90 1005.0
20260507021516 15 224 6.4 17.7 0.00 0.79 0.79 90 1005.1
20260507021010 15 216 8.0 17.7 0.00 0.79 0.79 90 1005.1
20260507015507 15 180 8.0 16.1 0.00 0.79 0.79 90 1005.3
20260507014527 15 219 8.0 17.7 0.00 0.79 0.79 90 1005.3
20260507013008 15 227 8.0 20.9 0.00 0.79 0.79 91 1005.4
20260507012507 15 245 9.7 17.7 0.00 0.79 0.79 91 1005.5
20260507011511 15 232 6.4 17.7 0.00 0.79 0.79 91 1005.4
20260507010504 15 233 8.0 17.7 0.00 0.79 0.79 91 1005.5